map of LSE home
Great Circle Mapper logo
LSE - Airport
Location
City:  La Crosse, Wisconsin, United States
Name:La Crosse Municipal Airport
ICAO / IATA:KLSE / LSE
FAA:LSE

Details
Type:Airport (Part 139 Class I)
Use:Public/Civil
Latitude:4352'45"N (43.879278)
Longitude:9115'24"W (-91.256638)
Datum:WGS 1984
Elevation:655 ft (200 m)
Runways:3
Longest:8742 × 150 ft (2665 × 45.5 m), paved

Time
Time Zone:UTC-6 (DST-5)
Local Time:

Weather
METAR:KLSE 310853Z AUTO 00000KT 10SM CLR 18/16 A3001 RMK AO2 SLP154 T01830156 56004
TAF:KLSE 310520Z 3106/0106 VRB04KT P6SM SKC
FM310900 12004KT P6SM VCFG SCT004
TEMPO 3110/3112 2SM BR
FM311315 28006KT P6SM SCT050
FM010200 VRB03KT P6SM SKC

Related Locations
Nearby:
Farthest:MGV: 10871 mi / 17496 km
Margaret River, WA, AU

Find:

   beyond  
but within

Other Information
Maps:
Delays:
NOTAMs:
Links:
Sources:

  
flag of United States
flag of Wisconsin
  

Airport Diagram

Airport diagram for LSE

Airport diagram PDF

Sectional Chart

Flight Planning
at skyvector.com

Satellite Image

Google Maps Satellite View

 

Copyright © 2004-2014 Karl L. Swartz. All rights reserved.
The Great Circle Mapper name and logo are trademarks of the Great Circle Mapper.
All other trademarks mentioned herein belong to their respective owners.
Please see credits for attibutions and further copyright information.

  Follow gcmap on Facebook Follow gcmap on Twitter

hCard Microformat

Geo Microformat